owner,sensor,date,latitude,longitude,vertical_datum,sea_water_practical_salinity,qcFlag 
NERRS,ioos:station:NOAA.NERRS:wkbfrwq:1,2016-02-01T16:45:00Z,30.4162,-87.8228,2.29,2.6,1111122 
NERRS,ioos:station:NOAA.NERRS:wkbfrwq:1,2016-02-01T17:45:00Z,30.4162,-87.8228,2.31,3.2,1111122 
NERRS,ioos:station:NOAA.NERRS:wkbfrwq:1,2016-02-01T18:45:00Z,30.4162,-87.8228,2.34,2.5,1111122 
NERRS,ioos:station:NOAA.NERRS:wkbfrwq:1,2016-02-01T19:45:00Z,30.4162,-87.8228,2.36,3.2,1111122 
NERRS,ioos:station:NOAA.NERRS:wkbfrwq:1,2016-02-01T20:45:00Z,30.4162,-87.8228,2.37,3.2,1111122 
NERRS,ioos:station:NOAA.NERRS:wkbfrwq:1,2016-02-01T21:45:00Z,30.4162,-87.8228,2.36,3.7,1111122 
NERRS,ioos:station:NOAA.NERRS:wkbfrwq:1,2016-02-01T22:45:00Z,30.4162,-87.8228,2.36,3.7,1111122 
NERRS,ioos:station:NOAA.NERRS:wkbfrwq:1,2016-02-01T23:45:00Z,30.4162,-87.8228,2.36,3.4,1111122 
NERRS,ioos:station:NOAA.NERRS:wkbfrwq:1,2016-02-02T00:45:00Z,30.4162,-87.8228,2.33,3.4,1111122 
NERRS,ioos:station:NOAA.NERRS:wkbfrwq:1,2016-02-02T01:45:00Z,30.4162,-87.8228,2.31,3.9,1111122 
NERRS,ioos:station:NOAA.NERRS:wkbfrwq:1,2016-02-02T02:45:00Z,30.4162,-87.8228,2.28,3.5,1111122 
NERRS,ioos:station:NOAA.NERRS:wkbfrwq:1,2016-02-02T03:45:00Z,30.4162,-87.8228,2.25,3.6,1111122 
NERRS,ioos:station:NOAA.NERRS:wkbfrwq:1,2016-02-02T05:45:00Z,30.4162,-87.8228,2.19,3.7,1111122 
NERRS,ioos:station:NOAA.NERRS:wkbfrwq:1,2016-02-02T06:45:00Z,30.4162,-87.8228,2.15,3.7,1111122 
NERRS,ioos:station:NOAA.NERRS:wkbfrwq:1,2016-02-02T07:45:00Z,30.4162,-87.8228,2.14,3.9,1111122 
NERRS,ioos:station:NOAA.NERRS:wkbfrwq:1,2016-02-02T08:45:00Z,30.4162,-87.8228,2.12,3.6,1111122 
NERRS,ioos:station:NOAA.NERRS:wkbfrwq:1,2016-02-02T09:45:00Z,30.4162,-87.8228,2.1,3.6,1111122 
NERRS,ioos:station:NOAA.NERRS:wkbfrwq:1,2016-02-02T10:45:00Z,30.4162,-87.8228,2.09,3.8,1111122 
NERRS,ioos:station:NOAA.NERRS:wkbfrwq:1,2016-02-02T11:45:00Z,30.4162,-87.8228,2.12,3.7,1111122 
NERRS,ioos:station:NOAA.NERRS:wkbfrwq:1,2016-02-02T13:45:00Z,30.4162,-87.8228,2.23,2.3,1111122 
NERRS,ioos:station:NOAA.NERRS:wkbfrwq:1,2016-02-02T14:45:00Z,30.4162,-87.8228,2.27,2.8,1111122 
NERRS,ioos:station:NOAA.NERRS:wkbfrwq:1,2016-02-02T15:45:00Z,30.4162,-87.8228,2.34,2.7,1111122 
NERRS,ioos:station:NOAA.NERRS:wkbfrwq:1,2016-02-02T18:45:00Z,30.4162,-87.8228,2.45,3.5,1111122 
NERRS,ioos:station:NOAA.NERRS:wkbfrwq:1,2016-02-02T19:45:00Z,30.4162,-87.8228,2.49,3.4,1111122 
NERRS,ioos:station:NOAA.NERRS:wkbfrwq:1,2016-02-02T20:45:00Z,30.4162,-87.8228,2.54,3.5,1111122 
NERRS,ioos:station:NOAA.NERRS:wkbfrwq:1,2016-02-02T21:45:00Z,30.4162,-87.8228,2.56,3.7,1111122 
NERRS,ioos:station:NOAA.NERRS:wkbfrwq:1,2016-02-02T22:45:00Z,30.4162,-87.8228,2.6,3.8,1111122 
NERRS,ioos:station:NOAA.NERRS:wkbfrwq:1,2016-02-03T00:45:00Z,30.4162,-87.8228,2.63,3.9,1111122 
NERRS,ioos:station:NOAA.NERRS:wkbfrwq:1,2016-02-03T01:45:00Z,30.4162,-87.8228,2.62,3.6,1111122 
NERRS,ioos:station:NOAA.NERRS:wkbfrwq:1,2016-02-03T03:45:00Z,30.4162,-87.8228,2.59,3.6,1111122 
NERRS,ioos:station:NOAA.NERRS:wkbfrwq:1,2016-02-03T04:45:00Z,30.4162,-87.8228,2.56,3.6,1111122 
NERRS,ioos:station:NOAA.NERRS:wkbfrwq:1,2016-02-03T06:30:00Z,30.4162,-87.8228,2.44,3.2,1111122 
NERRS,ioos:station:NOAA.NERRS:wkbfrwq:1,2016-02-03T07:45:00Z,30.4162,-87.8228,2.36,3.1,1111122 
NERRS,ioos:station:NOAA.NERRS:wkbfrwq:1,2016-02-03T08:45:00Z,30.4162,-87.8228,2.3,2.7,1111122 
NERRS,ioos:station:NOAA.NERRS:wkbfrwq:1,2016-02-03T09:45:00Z,30.4162,-87.8228,2.29,2.6,1111122 
NERRS,ioos:station:NOAA.NERRS:wkbfrwq:1,2016-02-03T10:45:00Z,30.4162,-87.8228,2.26,2.5,1111122 
NERRS,ioos:station:NOAA.NERRS:wkbfrwq:1,2016-02-03T11:45:00Z,30.4162,-87.8228,2.21,2.1,1111122 
NERRS,ioos:station:NOAA.NERRS:wkbfrwq:1,2016-02-03T13:45:00Z,30.4162,-87.8228,2.3,2.2,1111122 
NERRS,ioos:station:NOAA.NERRS:wkbfrwq:1,2016-02-03T15:45:00Z,30.4162,-87.8228,2.05,1.3,1111122 
NERRS,ioos:station:NOAA.NERRS:wkbfrwq:1,2016-02-03T16:45:00Z,30.4162,-87.8228,2.06,1.8,1111122 
NERRS,ioos:station:NOAA.NERRS:wkbfrwq:1,2016-02-03T18:45:00Z,30.4162,-87.8228,2.26,2.3,1111122 
NERRS,ioos:station:NOAA.NERRS:wkbfrwq:1,2016-02-03T19:45:00Z,30.4162,-87.8228,2.28,2.2,1111122 
NERRS,ioos:station:NOAA.NERRS:wkbfrwq:1,2016-02-03T20:45:00Z,30.4162,-87.8228,2.35,2.5,1111122 
NERRS,ioos:station:NOAA.NERRS:wkbfrwq:1,2016-02-03T21:45:00Z,30.4162,-87.8228,2.45,2.3,1111122 
NERRS,ioos:station:NOAA.NERRS:wkbfrwq:1,2016-02-03T22:45:00Z,30.4162,-87.8228,0.0,2.9,1111122 
NERRS,ioos:station:NOAA.NERRS:wkbfrwq:1,2016-02-04T00:45:00Z,30.4162,-87.8228,2.63,3.2,1111122 
NERRS,ioos:station:NOAA.NERRS:wkbfrwq:1,2016-02-04T01:45:00Z,30.4162,-87.8228,2.65,3.4,1111122 
NERRS,ioos:station:NOAA.NERRS:wkbfrwq:1,2016-02-04T02:45:00Z,30.4162,-87.8228,2.63,2.7,1111122 
NERRS,ioos:station:NOAA.NERRS:wkbfrwq:1,2016-02-04T03:45:00Z,30.4162,-87.8228,2.56,2.6,1111122 
NERRS,ioos:station:NOAA.NERRS:wkbfrwq:1,2016-02-04T04:45:00Z,30.4162,-87.8228,2.48,2.3,1111122 
NERRS,ioos:station:NOAA.NERRS:wkbfrwq:1,2016-02-04T05:45:00Z,30.4162,-87.8228,2.37,1.8,1111122 
NERRS,ioos:station:NOAA.NERRS:wkbfrwq:1,2016-02-04T07:45:00Z,30.4162,-87.8228,2.28,1.7,1111122 
NERRS,ioos:station:NOAA.NERRS:wkbfrwq:1,2016-02-04T09:45:00Z,30.4162,-87.8228,2.15,1.6,1111122 
NERRS,ioos:station:NOAA.NERRS:wkbfrwq:1,2016-02-04T10:45:00Z,30.4162,-87.8228,2.04,1.5,1111122 
NERRS,ioos:station:NOAA.NERRS:wkbfrwq:1,2016-02-04T11:45:00Z,30.4162,-87.8228,1.95,1.5,1111122 
NERRS,ioos:station:NOAA.NERRS:wkbfrwq:1,2016-02-04T12:45:00Z,30.4162,-87.8228,1.92,1.5,1111122 
NERRS,ioos:station:NOAA.NERRS:wkbfrwq:1,2016-02-04T15:45:00Z,30.4162,-87.8228,2.03,1.5,1111122 
NERRS,ioos:station:NOAA.NERRS:wkbfrwq:1,2016-02-04T16:45:00Z,30.4162,-87.8228,2.1,1.8,1111122 
NERRS,ioos:station:NOAA.NERRS:wkbfrwq:1,2016-02-04T17:45:00Z,30.4162,-87.8228,2.15,2.4,1111122 
NERRS,ioos:station:NOAA.NERRS:wkbfrwq:1,2016-02-04T18:45:00Z,30.4162,-87.8228,2.16,2.0,1111122 
NERRS,ioos:station:NOAA.NERRS:wkbfrwq:1,2016-02-04T19:45:00Z,30.4162,-87.8228,2.19,2.8,1111122 
NERRS,ioos:station:NOAA.NERRS:wkbfrwq:1,2016-02-04T20:45:00Z,30.4162,-87.8228,2.29,2.5,1111122 
NERRS,ioos:station:NOAA.NERRS:wkbfrwq:1,2016-02-04T21:45:00Z,30.4162,-87.8228,2.39,3.0,1111122 
NERRS,ioos:station:NOAA.NERRS:wkbfrwq:1,2016-02-04T22:45:00Z,30.4162,-87.8228,2.4,2.6,1111122 
NERRS,ioos:station:NOAA.NERRS:wkbfrwq:1,2016-02-04T23:45:00Z,30.4162,-87.8228,2.4,2.1,1111122 
NERRS,ioos:station:NOAA.NERRS:wkbfrwq:1,2016-02-05T00:45:00Z,30.4162,-87.8228,2.39,2.1,1111122 
NERRS,ioos:station:NOAA.NERRS:wkbfrwq:1,2016-02-05T01:45:00Z,30.4162,-87.8228,2.38,2.2,1111122 
NERRS,ioos:station:NOAA.NERRS:wkbfrwq:1,2016-02-05T02:45:00Z,30.4162,-87.8228,2.36,1.9,1111122 
NERRS,ioos:station:NOAA.NERRS:wkbfrwq:1,2016-02-05T04:45:00Z,30.4162,-87.8228,0.0,1.7,1111122 
NERRS,ioos:station:NOAA.NERRS:wkbfrwq:1,2016-02-05T11:45:00Z,30.4162,-87.8228,1.84,1.2,1111122 
NERRS,ioos:station:NOAA.NERRS:wkbfrwq:1,2016-02-05T13:45:00Z,30.4162,-87.8228,1.86,1.3,1111122 
NERRS,ioos:station:NOAA.NERRS:wkbfrwq:1,2016-02-05T20:45:00Z,30.4162,-87.8228,2.19,2.6,1111122 
NERRS,ioos:station:NOAA.NERRS:wkbfrwq:1,2016-02-06T03:45:00Z,30.4162,-87.8228,2.29,3.1,1111122 
NERRS,ioos:station:NOAA.NERRS:wkbfrwq:1,2016-02-06T20:45:00Z,30.4162,-87.8228,2.2,3.9,1111122 
NERRS,ioos:station:NOAA.NERRS:wkbfrwq:1,2016-02-06T21:45:00Z,30.4162,-87.8228,2.23,4.1,1111122 
NERRS,ioos:station:NOAA.NERRS:wkbfrwq:1,2016-02-06T22:45:00Z,30.4162,-87.8228,2.24,4.6,1111122 
NERRS,ioos:station:NOAA.NERRS:wkbfrwq:1,2016-02-07T15:45:00Z,30.4162,-87.8228,1.79,3.6,1111122 
NERRS,ioos:station:NOAA.NERRS:wkbfrwq:1,2016-02-07T18:45:00Z,30.4162,-87.8228,0.0,3.2,1111122 
NERRS,ioos:station:NOAA.NERRS:wkbfrwq:1,2016-02-07T19:45:00Z,30.4162,-87.8228,2.02,4.0,1111122 
NERRS,ioos:station:NOAA.NERRS:wkbfrwq:1,2016-02-07T20:45:00Z,30.4162,-87.8228,2.02,2.7,1111122 
NERRS,ioos:station:NOAA.NERRS:wkbfrwq:1,2016-02-07T21:45:00Z,30.4162,-87.8228,2.03,4.9,1111122 
NERRS,ioos:station:NOAA.NERRS:wkbfrwq:1,2016-02-07T22:45:00Z,30.4162,-87.8228,2.16,3.5,1111122 
NERRS,ioos:station:NOAA.NERRS:wkbfrwq:1,2016-02-08T03:45:00Z,30.4162,-87.8228,2.54,4.5,1111122 
NERRS,ioos:station:NOAA.NERRS:wkbfrwq:1,2016-02-08T04:45:00Z,30.4162,-87.8228,2.54,4.7,1111122 
NERRS,ioos:station:NOAA.NERRS:wkbfrwq:1,2016-02-08T11:45:00Z,30.4162,-87.8228,2.09,2.7,1111122 
NERRS,ioos:station:NOAA.NERRS:wkbfrwq:1,2016-02-08T16:45:00Z,30.4162,-87.8228,1.96,4.0,1111122 
NERRS,ioos:station:NOAA.NERRS:wkbfrwq:1,2016-02-08T18:45:00Z,30.4162,-87.8228,2.07,3.6,1111122 
NERRS,ioos:station:NOAA.NERRS:wkbfrwq:1,2016-02-08T20:45:00Z,30.4162,-87.8228,2.03,3.2,1111122 
NERRS,ioos:station:NOAA.NERRS:wkbfrwq:1,2016-02-08T21:45:00Z,30.4162,-87.8228,2.05,3.6,1111122 
NERRS,ioos:station:NOAA.NERRS:wkbfrwq:1,2016-02-08T22:45:00Z,30.4162,-87.8228,2.05,2.5,1111122 
NERRS,ioos:station:NOAA.NERRS:wkbfrwq:1,2016-02-08T23:45:00Z,30.4162,-87.8228,1.98,2.5,1111122 
NERRS,ioos:station:NOAA.NERRS:wkbfrwq:1,2016-02-09T00:45:00Z,30.4162,-87.8228,1.98,2.6,1111122 
NERRS,ioos:station:NOAA.NERRS:wkbfrwq:1,2016-02-09T01:45:00Z,30.4162,-87.8228,2.05,3.1,1111122 
NERRS,ioos:station:NOAA.NERRS:wkbfrwq:1,2016-02-09T08:45:00Z,30.4162,-87.8228,2.16,3.0,1111122 
NERRS,ioos:station:NOAA.NERRS:wkbfrwq:1,2016-02-09T20:45:00Z,30.4162,-87.8228,1.92,2.3,1111122 
NERRS,ioos:station:NOAA.NERRS:wkbfrwq:1,2016-02-09T21:45:00Z,30.4162,-87.8228,2.0,2.6,1111122 
NERRS,ioos:station:NOAA.NERRS:wkbfrwq:1,2016-02-09T22:45:00Z,30.4162,-87.8228,2.05,2.5,1111122 
NERRS,ioos:station:NOAA.NERRS:wkbfrwq:1,2016-02-09T23:45:00Z,30.4162,-87.8228,2.05,2.6,1111122 
NERRS,ioos:station:NOAA.NERRS:wkbfrwq:1,2016-02-10T00:45:00Z,30.4162,-87.8228,2.04,2.3,1111122 
NERRS,ioos:station:NOAA.NERRS:wkbfrwq:1,2016-02-10T02:45:00Z,30.4162,-87.8228,2.07,2.4,1111122 
NERRS,ioos:station:NOAA.NERRS:wkbfrwq:1,2016-02-10T03:45:00Z,30.4162,-87.8228,2.11,2.7,1111122 
NERRS,ioos:station:NOAA.NERRS:wkbfrwq:1,2016-02-10T04:45:00Z,30.4162,-87.8228,2.15,2.6,1111122 
NERRS,ioos:station:NOAA.NERRS:wkbfrwq:1,2016-02-10T07:45:00Z,30.4162,-87.8228,2.17,2.3,1111122 
NERRS,ioos:station:NOAA.NERRS:wkbfrwq:1,2016-02-10T13:45:00Z,30.4162,-87.8228,1.86,1.8,1111122 
NERRS,ioos:station:NOAA.NERRS:wkbfrwq:1,2016-02-10T14:45:00Z,30.4162,-87.8228,1.85,1.7,1111122 
NERRS,ioos:station:NOAA.NERRS:wkbfrwq:1,2016-02-10T19:45:00Z,30.4162,-87.8228,1.95,2.0,1111122 
NERRS,ioos:station:NOAA.NERRS:wkbfrwq:1,2016-02-10T20:45:00Z,30.4162,-87.8228,2.02,2.0,1111122 
NERRS,ioos:station:NOAA.NERRS:wkbfrwq:1,2016-02-10T22:45:00Z,30.4162,-87.8228,2.06,2.0,1111122 
NERRS,ioos:station:NOAA.NERRS:wkbfrwq:1,2016-02-11T03:45:00Z,30.4162,-87.8228,2.07,2.4,1111122 
NERRS,ioos:station:NOAA.NERRS:wkbfrwq:1,2016-02-11T04:45:00Z,30.4162,-87.8228,2.13,2.6,1111122 
NERRS,ioos:station:NOAA.NERRS:wkbfrwq:1,2016-02-11T06:45:00Z,30.4162,-87.8228,2.2,2.6,1111122 
NERRS,ioos:station:NOAA.NERRS:wkbfrwq:1,2016-02-11T07:45:00Z,30.4162,-87.8228,2.24,2.7,1111122 
NERRS,ioos:station:NOAA.NERRS:wkbfrwq:1,2016-02-11T09:45:00Z,30.4162,-87.8228,2.21,1.9,1111122 
NERRS,ioos:station:NOAA.NERRS:wkbfrwq:1,2016-02-11T10:45:00Z,30.4162,-87.8228,2.12,2.6,1111122 
NERRS,ioos:station:NOAA.NERRS:wkbfrwq:1,2016-02-11T16:45:00Z,30.4162,-87.8228,2.01,2.0,1111122 
NERRS,ioos:station:NOAA.NERRS:wkbfrwq:1,2016-02-11T17:45:00Z,30.4162,-87.8228,2.06,2.5,1111122 
NERRS,ioos:station:NOAA.NERRS:wkbfrwq:1,2016-02-11T18:45:00Z,30.4162,-87.8228,2.09,2.4,1111122 
NERRS,ioos:station:NOAA.NERRS:wkbfrwq:1,2016-02-11T20:45:00Z,30.4162,-87.8228,2.18,2.7,1111122 
NERRS,ioos:station:NOAA.NERRS:wkbfrwq:1,2016-02-11T21:45:00Z,30.4162,-87.8228,2.2,2.8,1111122 
NERRS,ioos:station:NOAA.NERRS:wkbfrwq:1,2016-02-11T22:45:00Z,30.4162,-87.8228,2.21,2.8,1111122 
NERRS,ioos:station:NOAA.NERRS:wkbfrwq:1,2016-02-11T23:45:00Z,30.4162,-87.8228,2.2,2.7,1111122 
NERRS,ioos:station:NOAA.NERRS:wkbfrwq:1,2016-02-12T00:45:00Z,30.4162,-87.8228,2.19,2.6,1111122 
NERRS,ioos:station:NOAA.NERRS:wkbfrwq:1,2016-02-12T01:45:00Z,30.4162,-87.8228,2.21,2.6,1111122 
NERRS,ioos:station:NOAA.NERRS:wkbfrwq:1,2016-02-12T02:45:00Z,30.4162,-87.8228,2.24,2.8,1111122 
NERRS,ioos:station:NOAA.NERRS:wkbfrwq:1,2016-02-12T03:45:00Z,30.4162,-87.8228,2.25,2.7,1111122 
NERRS,ioos:station:NOAA.NERRS:wkbfrwq:1,2016-02-12T04:45:00Z,30.4162,-87.8228,2.25,2.7,1111122 
NERRS,ioos:station:NOAA.NERRS:wkbfrwq:1,2016-02-12T05:45:00Z,30.4162,-87.8228,2.26,2.8,1111122 
NERRS,ioos:station:NOAA.NERRS:wkbfrwq:1,2016-02-12T06:45:00Z,30.4162,-87.8228,2.26,2.8,1111122 
NERRS,ioos:station:NOAA.NERRS:wkbfrwq:1,2016-02-12T07:45:00Z,30.4162,-87.8228,2.26,2.8,1111122 
NERRS,ioos:station:NOAA.NERRS:wkbfrwq:1,2016-02-12T09:45:00Z,30.4162,-87.8228,2.21,2.7,1111122 
NERRS,ioos:station:NOAA.NERRS:wkbfrwq:1,2016-02-12T10:45:00Z,30.4162,-87.8228,2.18,2.7,1111122 
NERRS,ioos:station:NOAA.NERRS:wkbfrwq:1,2016-02-12T11:45:00Z,30.4162,-87.8228,2.14,2.4,1111122 
NERRS,ioos:station:NOAA.NERRS:wkbfrwq:1,2016-02-12T12:45:00Z,30.4162,-87.8228,2.1,1.9,1111122 
NERRS,ioos:station:NOAA.NERRS:wkbfrwq:1,2016-02-12T13:45:00Z,30.4162,-87.8228,2.06,1.9,1111122 
NERRS,ioos:station:NOAA.NERRS:wkbfrwq:1,2016-02-12T14:45:00Z,30.4162,-87.8228,2.04,2.2,1111122 
NERRS,ioos:station:NOAA.NERRS:wkbfrwq:1,2016-02-12T15:45:00Z,30.4162,-87.8228,2.06,2.9,1111122 
NERRS,ioos:station:NOAA.NERRS:wkbfrwq:1,2016-02-12T16:45:00Z,30.4162,-87.8228,2.06,1.8,1111122 
NERRS,ioos:station:NOAA.NERRS:wkbfrwq:1,2016-02-12T17:45:00Z,30.4162,-87.8228,2.07,1.7,1111122 
NERRS,ioos:station:NOAA.NERRS:wkbfrwq:1,2016-02-12T18:45:00Z,30.4162,-87.8228,2.11,1.8,1111122 
NERRS,ioos:station:NOAA.NERRS:wkbfrwq:1,2016-02-12T19:45:00Z,30.4162,-87.8228,2.15,2.0,1111122 
NERRS,ioos:station:NOAA.NERRS:wkbfrwq:1,2016-02-12T20:45:00Z,30.4162,-87.8228,2.16,2.1,1111122 
NERRS,ioos:station:NOAA.NERRS:wkbfrwq:1,2016-02-12T21:45:00Z,30.4162,-87.8228,2.17,2.1,1111122 
NERRS,ioos:station:NOAA.NERRS:wkbfrwq:1,2016-02-12T22:45:00Z,30.4162,-87.8228,2.18,2.3,1111122 
NERRS,ioos:station:NOAA.NERRS:wkbfrwq:1,2016-02-12T23:45:00Z,30.4162,-87.8228,2.17,2.2,1111122 
NERRS,ioos:station:NOAA.NERRS:wkbfrwq:1,2016-02-13T00:45:00Z,30.4162,-87.8228,2.12,2.2,1111122 
NERRS,ioos:station:NOAA.NERRS:wkbfrwq:1,2016-02-13T01:45:00Z,30.4162,-87.8228,2.06,1.9,1111122 
NERRS,ioos:station:NOAA.NERRS:wkbfrwq:1,2016-02-13T02:45:00Z,30.4162,-87.8228,2.02,1.8,1111122 
NERRS,ioos:station:NOAA.NERRS:wkbfrwq:1,2016-02-13T03:45:00Z,30.4162,-87.8228,2.02,2.0,1111122 
NERRS,ioos:station:NOAA.NERRS:wkbfrwq:1,2016-02-13T04:45:00Z,30.4162,-87.8228,2.0,1.4,1111122 
NERRS,ioos:station:NOAA.NERRS:wkbfrwq:1,2016-02-13T05:45:00Z,30.4162,-87.8228,1.97,1.4,1111122 
NERRS,ioos:station:NOAA.NERRS:wkbfrwq:1,2016-02-13T06:45:00Z,30.4162,-87.8228,1.98,2.3,1111122 
NERRS,ioos:station:NOAA.NERRS:wkbfrwq:1,2016-02-13T07:45:00Z,30.4162,-87.8228,1.99,2.1,1111122 
NERRS,ioos:station:NOAA.NERRS:wkbfrwq:1,2016-02-13T17:45:00Z,30.4162,-87.8228,2.16,2.6,1111122 
NERRS,ioos:station:NOAA.NERRS:wkbfrwq:1,2016-02-13T18:45:00Z,30.4162,-87.8228,2.21,3.0,1111122 
NERRS,ioos:station:NOAA.NERRS:wkbfrwq:1,2016-02-13T20:45:00Z,30.4162,-87.8228,2.25,3.0,1111122 
NERRS,ioos:station:NOAA.NERRS:wkbfrwq:1,2016-02-13T21:45:00Z,30.4162,-87.8228,2.25,3.0,1111122 
NERRS,ioos:station:NOAA.NERRS:wkbfrwq:1,2016-02-13T23:45:00Z,30.4162,-87.8228,2.26,2.3,1111122 
NERRS,ioos:station:NOAA.NERRS:wkbfrwq:1,2016-02-14T00:45:00Z,30.4162,-87.8228,2.2,1.9,1111122 
NERRS,ioos:station:NOAA.NERRS:wkbfrwq:1,2016-02-14T14:45:00Z,30.4162,-87.8228,2.08,2.5,1111122 
NERRS,ioos:station:NOAA.NERRS:wkbfrwq:1,2016-02-14T15:45:00Z,30.4162,-87.8228,0.0,2.3,1111122 
NERRS,ioos:station:NOAA.NERRS:wkbfrwq:1,2016-02-14T16:45:00Z,30.4162,-87.8228,2.22,2.4,1111122 
NERRS,ioos:station:NOAA.NERRS:wkbfrwq:1,2016-02-14T18:45:00Z,30.4162,-87.8228,2.3,2.8,1111122 
NERRS,ioos:station:NOAA.NERRS:wkbfrwq:1,2016-02-14T19:45:00Z,30.4162,-87.8228,2.33,2.8,1111122 
NERRS,ioos:station:NOAA.NERRS:wkbfrwq:1,2016-02-14T20:45:00Z,30.4162,-87.8228,2.4,2.6,1111122 
NERRS,ioos:station:NOAA.NERRS:wkbfrwq:1,2016-02-14T21:45:00Z,30.4162,-87.8228,2.45,2.5,1111122 
NERRS,ioos:station:NOAA.NERRS:wkbfrwq:1,2016-02-14T22:45:00Z,30.4162,-87.8228,2.43,2.7,1111122 
NERRS,ioos:station:NOAA.NERRS:wkbfrwq:1,2016-02-14T23:45:00Z,30.4162,-87.8228,2.37,2.6,1111122 
NERRS,ioos:station:NOAA.NERRS:wkbfrwq:1,2016-02-15T00:45:00Z,30.4162,-87.8228,2.3,2.3,1111122 
NERRS,ioos:station:NOAA.NERRS:wkbfrwq:1,2016-02-15T01:45:00Z,30.4162,-87.8228,2.28,2.4,1111122 
NERRS,ioos:station:NOAA.NERRS:wkbfrwq:1,2016-02-15T02:45:00Z,30.4162,-87.8228,2.24,2.1,1111122 
NERRS,ioos:station:NOAA.NERRS:wkbfrwq:1,2016-02-15T03:45:00Z,30.4162,-87.8228,2.2,2.0,1111122 
NERRS,ioos:station:NOAA.NERRS:wkbfrwq:1,2016-02-15T04:45:00Z,30.4162,-87.8228,2.15,2.0,1111122 
NERRS,ioos:station:NOAA.NERRS:wkbfrwq:1,2016-02-15T05:45:00Z,30.4162,-87.8228,2.09,1.6,1111122 
NERRS,ioos:station:NOAA.NERRS:wkbfrwq:1,2016-02-15T06:45:00Z,30.4162,-87.8228,2.04,1.8,1111122 
NERRS,ioos:station:NOAA.NERRS:wkbfrwq:1,2016-02-15T07:45:00Z,30.4162,-87.8228,2.03,2.3,1111122 
NERRS,ioos:station:NOAA.NERRS:wkbfrwq:1,2016-02-15T09:45:00Z,30.4162,-87.8228,2.05,2.4,1111122 
NERRS,ioos:station:NOAA.NERRS:wkbfrwq:1,2016-02-15T10:45:00Z,30.4162,-87.8228,2.04,1.9,1111122 
NERRS,ioos:station:NOAA.NERRS:wkbfrwq:1,2016-02-15T11:45:00Z,30.4162,-87.8228,2.06,2.3,1111122 
NERRS,ioos:station:NOAA.NERRS:wkbfrwq:1,2016-02-15T12:45:00Z,30.4162,-87.8228,2.1,2.2,1111122 
NERRS,ioos:station:NOAA.NERRS:wkbfrwq:1,2016-02-15T13:45:00Z,30.4162,-87.8228,2.13,2.2,1111122 
NERRS,ioos:station:NOAA.NERRS:wkbfrwq:1,2016-02-15T14:45:00Z,30.4162,-87.8228,2.18,2.1,1111122 
NERRS,ioos:station:NOAA.NERRS:wkbfrwq:1,2016-02-15T15:45:00Z,30.4162,-87.8228,2.27,2.2,1111122 
NERRS,ioos:station:NOAA.NERRS:wkbfrwq:1,2016-02-15T16:45:00Z,30.4162,-87.8228,2.31,2.2,1111122 
NERRS,ioos:station:NOAA.NERRS:wkbfrwq:1,2016-02-15T17:45:00Z,30.4162,-87.8228,2.3,2.4,1111122 
NERRS,ioos:station:NOAA.NERRS:wkbfrwq:1,2016-02-15T18:45:00Z,30.4162,-87.8228,2.36,2.3,1111122 
NERRS,ioos:station:NOAA.NERRS:wkbfrwq:1,2016-02-15T19:45:00Z,30.4162,-87.8228,2.43,2.7,1111122 
NERRS,ioos:station:NOAA.NERRS:wkbfrwq:1,2016-02-15T20:45:00Z,30.4162,-87.8228,2.47,2.7,1111122 
NERRS,ioos:station:NOAA.NERRS:wkbfrwq:1,2016-02-15T21:45:00Z,30.4162,-87.8228,2.58,2.7,1111122 
NERRS,ioos:station:NOAA.NERRS:wkbfrwq:1,2016-02-15T22:45:00Z,30.4162,-87.8228,0.0,3.0,1111122 
NERRS,ioos:station:NOAA.NERRS:wkbfrwq:1,2016-02-16T04:45:00Z,30.4162,-87.8228,2.33,2.2,1111122 
NERRS,ioos:station:NOAA.NERRS:wkbfrwq:1,2016-02-16T05:45:00Z,30.4162,-87.8228,2.29,2.1,1111122 
NERRS,ioos:station:NOAA.NERRS:wkbfrwq:1,2016-02-16T06:45:00Z,30.4162,-87.8228,2.19,2.0,1111122 
NERRS,ioos:station:NOAA.NERRS:wkbfrwq:1,2016-02-16T07:45:00Z,30.4162,-87.8228,2.06,1.9,1111122 
NERRS,ioos:station:NOAA.NERRS:wkbfrwq:1,2016-02-16T09:45:00Z,30.4162,-87.8228,1.96,1.7,1111122 
NERRS,ioos:station:NOAA.NERRS:wkbfrwq:1,2016-02-16T10:45:00Z,30.4162,-87.8228,1.96,1.6,1111122 
NERRS,ioos:station:NOAA.NERRS:wkbfrwq:1,2016-02-16T11:45:00Z,30.4162,-87.8228,1.9,1.6,1111122 
NERRS,ioos:station:NOAA.NERRS:wkbfrwq:1,2016-02-16T14:45:00Z,30.4162,-87.8228,2.12,1.9,1111122 
NERRS,ioos:station:NOAA.NERRS:wkbfrwq:1,2016-02-16T20:45:00Z,30.4162,-87.8228,2.47,2.3,1111122 
NERRS,ioos:station:NOAA.NERRS:wkbfrwq:1,2016-02-16T21:45:00Z,30.4162,-87.8228,2.48,2.3,1111122 
NERRS,ioos:station:NOAA.NERRS:wkbfrwq:1,2016-02-16T22:45:00Z,30.4162,-87.8228,2.49,2.3,1111122 
NERRS,ioos:station:NOAA.NERRS:wkbfrwq:1,2016-02-16T23:45:00Z,30.4162,-87.8228,2.47,2.3,1111122 
NERRS,ioos:station:NOAA.NERRS:wkbfrwq:1,2016-02-17T00:45:00Z,30.4162,-87.8228,2.41,2.0,1111122 
NERRS,ioos:station:NOAA.NERRS:wkbfrwq:1,2016-02-17T01:45:00Z,30.4162,-87.8228,2.38,1.9,1111122 
NERRS,ioos:station:NOAA.NERRS:wkbfrwq:1,2016-02-17T05:45:00Z,30.4162,-87.8228,2.22,1.5,1111122 
NERRS,ioos:station:NOAA.NERRS:wkbfrwq:1,2016-02-17T06:45:00Z,30.4162,-87.8228,2.15,1.4,1111122 
NERRS,ioos:station:NOAA.NERRS:wkbfrwq:1,2016-02-17T07:45:00Z,30.4162,-87.8228,2.1,1.4,1111122 
NERRS,ioos:station:NOAA.NERRS:wkbfrwq:1,2016-02-17T08:45:00Z,30.4162,-87.8228,2.05,1.3,1111122 
NERRS,ioos:station:NOAA.NERRS:wkbfrwq:1,2016-02-17T16:45:00Z,30.4162,-87.8228,2.03,1.0,1111122 
NERRS,ioos:station:NOAA.NERRS:wkbfrwq:1,2016-02-17T17:45:00Z,30.4162,-87.8228,2.11,1.4,1111122 
NERRS,ioos:station:NOAA.NERRS:wkbfrwq:1,2016-02-17T19:45:00Z,30.4162,-87.8228,2.22,1.5,1111122 
NERRS,ioos:station:NOAA.NERRS:wkbfrwq:1,2016-02-17T20:45:00Z,30.4162,-87.8228,2.26,1.7,1111122 
NERRS,ioos:station:NOAA.NERRS:wkbfrwq:1,2016-02-17T21:45:00Z,30.4162,-87.8228,2.33,1.8,1111122 
NERRS,ioos:station:NOAA.NERRS:wkbfrwq:1,2016-02-17T22:45:00Z,30.4162,-87.8228,2.39,1.8,1111122 
NERRS,ioos:station:NOAA.NERRS:wkbfrwq:1,2016-02-17T23:45:00Z,30.4162,-87.8228,2.4,1.7,1111122 
NERRS,ioos:station:NOAA.NERRS:wkbfrwq:1,2016-02-18T11:45:00Z,30.4162,-87.8228,1.81,0.7,1111122 
NERRS,ioos:station:NOAA.NERRS:wkbfrwq:1,2016-02-18T12:45:00Z,30.4162,-87.8228,1.8,0.6,1111122 
NERRS,ioos:station:NOAA.NERRS:wkbfrwq:1,2016-02-18T16:45:00Z,30.4162,-87.8228,2.07,1.2,1111122 
NERRS,ioos:station:NOAA.NERRS:wkbfrwq:1,2016-02-18T17:45:00Z,30.4162,-87.8228,2.15,1.4,1111122 
NERRS,ioos:station:NOAA.NERRS:wkbfrwq:1,2016-02-18T21:45:00Z,30.4162,-87.8228,2.37,1.6,1111122 
NERRS,ioos:station:NOAA.NERRS:wkbfrwq:1,2016-02-18T22:45:00Z,30.4162,-87.8228,2.43,1.8,1111122 
NERRS,ioos:station:NOAA.NERRS:wkbfrwq:1,2016-02-18T23:45:00Z,30.4162,-87.8228,2.48,1.7,1111122 
NERRS,ioos:station:NOAA.NERRS:wkbfrwq:1,2016-02-19T00:45:00Z,30.4162,-87.8228,2.5,1.8,1111122 
NERRS,ioos:station:NOAA.NERRS:wkbfrwq:1,2016-02-19T01:45:00Z,30.4162,-87.8228,0.0,1.8,1111122 
NERRS,ioos:station:NOAA.NERRS:wkbfrwq:1,2016-02-19T05:45:00Z,30.4162,-87.8228,2.31,1.5,1111122 
NERRS,ioos:station:NOAA.NERRS:wkbfrwq:1,2016-02-19T06:45:00Z,30.4162,-87.8228,2.22,1.0,1111122 
NERRS,ioos:station:NOAA.NERRS:wkbfrwq:1,2016-02-19T15:45:00Z,30.4162,-87.8228,1.93,1.2,1111122 
NERRS,ioos:station:NOAA.NERRS:wkbfrwq:1,2016-02-19T16:45:00Z,30.4162,-87.8228,2.01,0.9,1111122 
NERRS,ioos:station:NOAA.NERRS:wkbfrwq:1,2016-02-19T17:45:00Z,30.4162,-87.8228,2.08,1.2,1111122 
NERRS,ioos:station:NOAA.NERRS:wkbfrwq:1,2016-02-19T18:45:00Z,30.4162,-87.8228,2.12,1.2,1111122 
NERRS,ioos:station:NOAA.NERRS:wkbfrwq:1,2016-02-19T20:45:00Z,30.4162,-87.8228,2.17,1.4,1111122 
NERRS,ioos:station:NOAA.NERRS:wkbfrwq:1,2016-02-19T21:45:00Z,30.4162,-87.8228,2.25,1.5,1111122 
NERRS,ioos:station:NOAA.NERRS:wkbfrwq:1,2016-02-19T22:45:00Z,30.4162,-87.8228,2.34,1.8,1111122 
NERRS,ioos:station:NOAA.NERRS:wkbfrwq:1,2016-02-19T23:45:00Z,30.4162,-87.8228,2.39,2.1,1111122 
NERRS,ioos:station:NOAA.NERRS:wkbfrwq:1,2016-02-20T00:45:00Z,30.4162,-87.8228,2.41,2.1,1111122 
NERRS,ioos:station:NOAA.NERRS:wkbfrwq:1,2016-02-20T01:45:00Z,30.4162,-87.8228,2.46,2.3,1111122 
NERRS,ioos:station:NOAA.NERRS:wkbfrwq:1,2016-02-20T15:45:00Z,30.4162,-87.8228,2.01,1.4,1111122 
NERRS,ioos:station:NOAA.NERRS:wkbfrwq:1,2016-02-20T16:45:00Z,30.4162,-87.8228,2.06,1.2,1111122 
NERRS,ioos:station:NOAA.NERRS:wkbfrwq:1,2016-02-20T17:45:00Z,30.4162,-87.8228,2.13,1.4,1111122 
NERRS,ioos:station:NOAA.NERRS:wkbfrwq:1,2016-02-20T18:45:00Z,30.4162,-87.8228,2.18,1.3,1111122 
NERRS,ioos:station:NOAA.NERRS:wkbfrwq:1,2016-02-20T19:45:00Z,30.4162,-87.8228,2.22,1.4,1111122 
NERRS,ioos:station:NOAA.NERRS:wkbfrwq:1,2016-02-20T20:45:00Z,30.4162,-87.8228,2.23,1.4,1111122 
NERRS,ioos:station:NOAA.NERRS:wkbfrwq:1,2016-02-20T21:45:00Z,30.4162,-87.8228,2.29,1.5,1111122 
NERRS,ioos:station:NOAA.NERRS:wkbfrwq:1,2016-02-20T22:45:00Z,30.4162,-87.8228,2.35,1.6,1111122 
NERRS,ioos:station:NOAA.NERRS:wkbfrwq:1,2016-02-20T23:45:00Z,30.4162,-87.8228,2.4,1.7,1111122 
NERRS,ioos:station:NOAA.NERRS:wkbfrwq:1,2016-02-21T00:45:00Z,30.4162,-87.8228,2.45,1.8,1111122 
NERRS,ioos:station:NOAA.NERRS:wkbfrwq:1,2016-02-21T01:45:00Z,30.4162,-87.8228,2.48,1.8,1111122 
NERRS,ioos:station:NOAA.NERRS:wkbfrwq:1,2016-02-21T03:45:00Z,30.4162,-87.8228,2.52,1.9,1111122 
NERRS,ioos:station:NOAA.NERRS:wkbfrwq:1,2016-02-21T04:45:00Z,30.4162,-87.8228,2.49,1.8,1111122 
NERRS,ioos:station:NOAA.NERRS:wkbfrwq:1,2016-02-21T05:45:00Z,30.4162,-87.8228,2.45,1.8,1111122 